User: anonymous   Login
Location: Unspecified
(0.0000°N, 0.0000°E)
Time: 22:26:11
(UTC+00:00)
Language:

TBA - TO BE ASSIGNED - Orbit

View from above orbital plane
View from above orbital plane
View from above satellite
View from above satellite

Ground track
Ground track

The orbit is defined by the following mean orbital elements,

1 68717U          26145.58335647 +.00000000 +00000-0 -49979-1 0 00001
2 68717  53.1604  37.0133 0000736 121.1263 264.4055 15.40064093    07
Epoch (UTC): 25 May 2026 14:00:01
Eccentricity: 0.0000736
inclination: 53.1604°
perigee height: 445 km
apogee height: 446 km
right ascension of ascending node: 37.0133°
argument of perigee: 121.1263°
revolutions per day: 15.40064093
mean anomaly at epoch: 264.4055°

The dashed part of the orbit path shows where the satellite is in the earth's shadow,  

DLR